TimeCDT,TemperatureF,Dew PointF,Humidity,Sea Level PressureIn,VisibilityMPH,Wind Direction,Wind SpeedMPH,Gust SpeedMPH,PrecipitationIn,Events,Conditions,WindDirDegrees,DateUTC
12:15 AM,69.8,66.2,88,30.14,8.0,Calm,Calm,-,N/A,,Clear,0,2013-06-25 05:15:00
12:35 AM,69.8,66.2,88,30.14,7.0,Calm,Calm,-,N/A,,Mostly Cloudy,0,2013-06-25 05:35:00
12:55 AM,69.8,66.2,88,30.15,10.0,Calm,Calm,-,N/A,,Overcast,0,2013-06-25 05:55:00
1:15 AM,69.8,66.2,88,30.14,9.0,Calm,Calm,-,N/A,,Overcast,0,2013-06-25 06:15:00
1:35 AM,69.8,66.2,88,30.14,9.0,Calm,Calm,-,N/A,,Overcast,0,2013-06-25 06:35:00
1:55 AM,71.6,68.0,88,30.14,10.0,Calm,Calm,-,N/A,,Overcast,0,2013-06-25 06:55:00
2:15 AM,69.8,68.0,94,30.14,8.0,Calm,Calm,-,N/A,,Overcast,0,2013-06-25 07:15:00
2:35 AM,71.6,68.0,88,30.14,10.0,Calm,Calm,-,N/A,,Overcast,0,2013-06-25 07:35:00
2:55 AM,71.6,68.0,88,30.14,10.0,Calm,Calm,-,N/A,,Overcast,0,2013-06-25 07:55:00
3:15 AM,71.6,68.0,88,30.14,10.0,Calm,Calm,-,N/A,,Overcast,0,2013-06-25 08:15:00
3:35 AM,71.6,68.0,88,30.14,10.0,Calm,Calm,-,N/A,,Mostly Cloudy,0,2013-06-25 08:35:00
3:55 AM,71.6,68.0,88,30.14,9.0,Calm,Calm,-,N/A,,Partly Cloudy,0,2013-06-25 08:55:00
4:15 AM,69.8,66.2,88,30.14,6.0,Calm,Calm,-,N/A,,Clear,0,2013-06-25 09:15:00
4:35 AM,69.8,66.2,88,30.14,5.0,Calm,Calm,-,N/A,,Clear,0,2013-06-25 09:35:00
4:55 AM,69.8,66.2,88,30.14,5.0,Calm,Calm,-,N/A,,Clear,0,2013-06-25 09:55:00
5:15 AM,68.0,66.2,94,30.14,5.0,Calm,Calm,-,N/A,,Clear,0,2013-06-25 10:15:00
5:35 AM,69.8,66.2,88,30.14,2.0,Calm,Calm,-,N/A,,Clear,0,2013-06-25 10:35:00
5:55 AM,68.0,64.4,88,30.14,5.0,Calm,Calm,-,N/A,,Partly Cloudy,0,2013-06-25 10:55:00
6:15 AM,69.8,66.2,88,30.15,5.0,Calm,Calm,-,N/A,,Scattered Clouds,0,2013-06-25 11:15:00
6:35 AM,69.8,66.2,88,30.15,7.0,Calm,Calm,-,N/A,,Clear,0,2013-06-25 11:35:00
6:55 AM,71.6,68.0,88,30.15,10.0,Calm,Calm,-,N/A,,Partly Cloudy,0,2013-06-25 11:55:00
7:15 AM,71.6,68.0,88,30.15,10.0,Calm,Calm,-,N/A,,Scattered Clouds,0,2013-06-25 12:15:00
7:35 AM,73.4,69.8,88,30.16,10.0,Calm,Calm,-,N/A,,Partly Cloudy,0,2013-06-25 12:35:00
7:55 AM,73.4,69.8,88,30.17,10.0,Calm,Calm,-,N/A,,Partly Cloudy,0,2013-06-25 12:55:00
8:15 AM,73.4,69.8,88,30.17,10.0,Calm,Calm,-,N/A,,Mostly Cloudy,0,2013-06-25 13:15:00
8:35 AM,75.2,69.8,83,30.17,10.0,SW,3.5,-,N/A,,Scattered Clouds,220,2013-06-25 13:35:00
8:55 AM,77.0,69.8,78,30.17,10.0,SW,4.6,-,N/A,,Clear,220,2013-06-25 13:55:00
9:15 AM,78.8,69.8,74,30.16,8.0,SSW,5.8,-,N/A,,Partly Cloudy,200,2013-06-25 14:15:00
9:35 AM,78.8,69.8,74,30.16,10.0,Calm,Calm,-,N/A,,Scattered Clouds,0,2013-06-25 14:35:00
9:55 AM,80.6,69.8,70,30.16,10.0,SSW,3.5,-,N/A,,Scattered Clouds,210,2013-06-25 14:55:00
10:15 AM,82.4,71.6,70,30.15,9.0,SE,3.5,-,N/A,,Scattered Clouds,140,2013-06-25 15:15:00
10:35 AM,80.6,69.8,70,30.15,10.0,South,4.6,-,N/A,,Mostly Cloudy,190,2013-06-25 15:35:00
10:55 AM,82.4,71.6,70,30.15,10.0,Calm,Calm,-,N/A,,Scattered Clouds,0,2013-06-25 15:55:00
11:15 AM,80.6,69.8,70,30.15,10.0,SW,3.5,-,N/A,,Scattered Clouds,220,2013-06-25 16:15:00
11:35 AM,84.2,71.6,66,30.14,10.0,Calm,Calm,-,N/A,,Scattered Clouds,0,2013-06-25 16:35:00
11:55 AM,84.2,71.6,66,30.14,10.0,SSW,4.6,-,N/A,,Mostly Cloudy,200,2013-06-25 16:55:00
12:15 PM,86.0,71.6,62,30.13,10.0,SSW,9.2,-,N/A,,Partly Cloudy,210,2013-06-25 17:15:00
12:35 PM,84.2,69.8,62,30.12,10.0,South,3.5,-,N/A,,Mostly Cloudy,170,2013-06-25 17:35:00
12:55 PM,84.2,71.6,66,30.12,10.0,SSW,4.6,-,N/A,,Scattered Clouds,200,2013-06-25 17:55:00
1:15 PM,86.0,71.6,62,30.11,10.0,ESE,3.5,-,N/A,,Mostly Cloudy,120,2013-06-25 18:15:00
1:35 PM,84.2,71.6,66,30.11,10.0,East,9.2,-,N/A,,Overcast,80,2013-06-25 18:35:00
1:55 PM,82.4,71.6,70,30.11,10.0,ESE,9.2,-,N/A,Thunderstorm,Thunderstorm,110,2013-06-25 18:55:00
2:15 PM,80.6,69.8,70,30.11,10.0,East,12.7,17.3,N/A,Thunderstorm,Thunderstorm,100,2013-06-25 19:15:00
2:35 PM,80.6,69.8,70,30.11,10.0,SSE,8.1,-,N/A,,Mostly Cloudy,150,2013-06-25 19:35:00
2:55 PM,80.6,71.6,74,30.10,9.0,South,4.6,-,N/A,,Scattered Clouds,180,2013-06-25 19:55:00
3:15 PM,78.8,71.6,78,30.10,10.0,SSW,3.5,-,N/A,Thunderstorm,Overcast,210,2013-06-25 20:15:00
3:35 PM,80.6,73.4,79,30.09,10.0,South,4.6,-,N/A,,Scattered Clouds,190,2013-06-25 20:35:00
3:55 PM,80.6,71.6,74,30.08,9.0,South,4.6,-,N/A,Thunderstorm,Partly Cloudy,190,2013-06-25 20:55:00
4:15 PM,80.6,71.6,74,30.07,10.0,South,3.5,-,N/A,,Clear,180,2013-06-25 21:15:00
4:35 PM,80.6,71.6,74,30.06,10.0,Calm,Calm,-,N/A,,Scattered Clouds,0,2013-06-25 21:35:00
4:55 PM,80.6,73.4,79,30.06,10.0,Calm,Calm,-,N/A,,Clear,0,2013-06-25 21:55:00
5:15 PM,80.6,73.4,79,30.06,10.0,Calm,Calm,-,N/A,Thunderstorm,Thunderstorm,0,2013-06-25 22:15:00
5:35 PM,78.8,71.6,78,30.05,10.0,NW,6.9,-,0.01,Thunderstorm,Mostly Cloudy,320,2013-06-25 22:35:00
5:55 PM,75.2,71.6,89,30.04,10.0,WSW,3.5,-,0.04,Thunderstorm,Thunderstorm,250,2013-06-25 22:55:00
6:15 PM,75.2,71.6,89,30.05,10.0,West,5.8,-,N/A,Thunderstorm,Thunderstorm,260,2013-06-25 23:15:00
6:35 PM,75.2,69.8,83,30.05,10.0,SW,5.8,-,N/A,Thunderstorm,Thunderstorm,220,2013-06-25 23:35:00
6:55 PM,73.4,69.8,88,30.05,9.0,SSW,3.5,-,N/A,Thunderstorm,Clear,200,2013-06-25 23:55:00
7:15 PM,73.4,69.8,88,30.04,10.0,Calm,Calm,-,N/A,,Clear,0,2013-06-26 00:15:00
7:35 PM,73.4,71.6,94,30.05,10.0,Calm,Calm,-,N/A,,Scattered Clouds,0,2013-06-26 00:35:00
7:55 PM,75.2,71.6,89,30.05,10.0,South,3.5,-,N/A,,Mostly Cloudy,190,2013-06-26 00:55:00
8:15 PM,73.4,69.8,88,30.05,10.0,Calm,Calm,-,N/A,,Mostly Cloudy,0,2013-06-26 01:15:00
8:35 PM,73.4,69.8,88,30.05,10.0,Calm,Calm,-,N/A,,Mostly Cloudy,0,2013-06-26 01:35:00
8:55 PM,73.4,69.8,88,30.05,9.0,WNW,3.5,-,N/A,,Scattered Clouds,290,2013-06-26 01:55:00
9:15 PM,73.4,69.8,88,30.06,9.0,Calm,Calm,-,N/A,,Clear,0,2013-06-26 02:15:00
9:35 PM,73.4,69.8,88,30.06,6.0,Calm,Calm,-,N/A,,Clear,0,2013-06-26 02:35:00
9:55 PM,71.6,69.8,94,30.06,5.0,Calm,Calm,-,N/A,,Clear,0,2013-06-26 02:55:00
10:15 PM,71.6,69.8,94,30.07,5.0,Calm,Calm,-,N/A,,Clear,0,2013-06-26 03:15:00
10:35 PM,71.6,69.8,94,30.06,4.0,Calm,Calm,-,N/A,,Clear,0,2013-06-26 03:35:00
10:55 PM,71.6,68.0,88,30.06,3.0,WSW,4.6,-,N/A,,Clear,240,2013-06-26 03:55:00
11:15 PM,71.6,68.0,88,30.05,2.0,Calm,Calm,-,N/A,,Clear,0,2013-06-26 04:15:00
11:35 PM,71.6,68.0,88,30.04,2.0,Calm,Calm,-,N/A,,Overcast,0,2013-06-26 04:35:00
11:55 PM,71.6,68.0,88,30.05,0.5,Calm,Calm,-,N/A,,Overcast,0,2013-06-26 04:55:00